{"data":{"norad_id":54836,"intl_designator":"2022-177S","name":"STARLINK-5384","alt_names":[],"object_type":"PAYLOAD","status":"ACTIVE","operator":null,"country":"US","launch_date":"2022-12-28","launch_site_code":"AFETR","launch_vehicle":null,"mission":null,"orbit_class":"UNKNOWN","rcs_meters":null,"size_class":null,"mass_kg":null,"dimensions":null,"purposes":["comms"],"wikipedia_slug":null,"has_3d_model":false,"image_url":null,"decayed_at":null,"tle_current":{"epoch":"2026-05-25T00:19:45.441696Z","epoch_age_seconds":69749,"freshness":"FRESH","line1":"1 54836U 22177S   26145.01372039  .00829832  36884-3  99792-3 0  9991","line2":"2 54836  42.9987  35.5468 0003407 258.7171 101.3327 16.07463316188947","mean_motion":16.07463316,"eccentricity":0.0003407,"inclination_deg":42.9987,"raan_deg":35.5468,"arg_perigee_deg":258.7171,"mean_anomaly_deg":101.3327,"bstar":0.00099792,"rev_number":18894,"period_min":89.582137624346,"perigee_km":251.55172779522,"apogee_km":256.07073732088,"semimajor_km":6631.948232558,"source":"CELESTRAK","updated_at":"2026-05-25T13:38:17.722714Z"}}}